Dalhart, TX

7:35 AM CDT on June 22, 2017 (GMT -0500)
Dalhart Municipal

Weather History for KDHT - July, 2013

Change the Weather History Date:

Sunday, July 7, 2013

  Actual Average Record
Temperature  
Mean Temperature 84 °F 77 °F  
Max Temperature 95 °F 92 °F 107 °F (2016)
Min Temperature 73 °F 62 °F 55 °F (1989)
Degree Days  
Heating Degree Days 0 0  
Month to date heating degree days 0 0  
Since 1 June heating degree days 0 12  
Since 1 July heating degree days 0 0  
Cooling Degree Days 19 12  
Month to date cooling degree days 81 80  
Year to date cooling degree days 642 392  
Since 1 June cooling degree days 488 320  
Growing Degree Days 34 (Base 50)    
Moisture  
Dew Point 47 °F    
Average Humidity 29    
Maximum Humidity 41    
Minimum Humidity 17    
Precipitation  
Precipitation 0.00 in 0.08 in 1.27 in (2008)
Month to date precipitation T 0.56  
Year to date precipitation 1.93 8.27  
Snow  
Snow 0.00 in 0.00 in 0.00 in ()
Month to date snowfall 0.0 0.0  
Since 1 June snowfall 0.0 0.0  
Since 1 July snowfall 0.0 0.0  
Snow Depth 0.00 in    
Sea Level Pressure  
Sea Level Pressure 29.83 in    
Wind  
Wind Speed 18 mph (SSW)    
Max Wind Speed 26 mph    
Max Gust Speed 33 mph    
Visibility 10 miles    
Events      
T = Trace of Precipitation, MM = Missing Value Source: NWS Daily Summary

Daily Weather History Graph

Daily Weather History Graph

Search for Another Location

Airport or City:

Trip Planner

Search our weather history database for the weather conditions in past years. The results will help you decide how hot, cold, wet, or windy it might be!

Date:

Astronomy

Jul. 07, 2013 Rise Set
Actual Time 6:40 AM CDT 9:09 PM CDT
Civil Twilight 6:10 AM CDT 9:39 PM CDT
Nautical Twilight 5:33 AM CDT 10:16 PM CDT
Astronomical Twilight 4:52 AM CDT 10:57 PM CDT
Moon 6:16 AM CDT (7/7) 8:37 PM CDT (7/7)
Length of Visible Light 15h 29m
Length of Day
14h 29m
Waning Crescent, 0% of the Moon is Illuminated
Jul 7
Waning Crescent
Jul 8
New
Jul 15
First Quarter
Jul 22
Full
Jul 29
Last Quarter

Hourly Weather History & Observations

Time (CDT) Temp. Dew Point Humidity Pressure Visibility Wind Dir Wind Speed Gust Speed Precip Events Conditions
12:53 AM 77.0 °F 46.0 °F 33% 29.80 in 10.0 mi South 13.8 mph - N/A   Clear
1:53 AM 75.9 °F 46.0 °F 35% 29.80 in 10.0 mi South 11.5 mph - N/A   Clear
2:53 AM 77.0 °F 46.9 °F 34% 29.81 in 10.0 mi South 12.7 mph - N/A   Overcast
3:53 AM 75.9 °F 46.9 °F 36% 29.81 in 10.0 mi South 12.7 mph - N/A   Partly Cloudy
4:53 AM 75.0 °F 48.0 °F 38% 29.81 in 10.0 mi South 17.3 mph - N/A   Clear
5:53 AM 73.9 °F 48.9 °F 41% 29.81 in 10.0 mi South 19.6 mph - N/A   Clear
6:53 AM 73.0 °F 48.9 °F 42% 29.82 in 10.0 mi South 15.0 mph - N/A   Clear
7:53 AM 75.0 °F 48.9 °F 40% 29.83 in 10.0 mi SSW 17.3 mph - N/A   Clear
8:53 AM 81.0 °F 48.9 °F 33% 29.84 in 10.0 mi SSW 20.7 mph - N/A   Clear
9:53 AM 84.9 °F 48.0 °F 28% 29.85 in 10.0 mi SSW 24.2 mph - N/A   Clear
10:53 AM 89.1 °F 46.9 °F 23% 29.85 in 10.0 mi SSW 20.7 mph 29.9 mph N/A   Clear
11:53 AM 91.9 °F 46.9 °F 21% 29.84 in 10.0 mi WSW 20.7 mph 27.6 mph N/A   Partly Cloudy
12:53 PM 89.1 °F 46.0 °F 22% 29.86 in 10.0 mi WSW 18.4 mph 24.2 mph N/A   Partly Cloudy
1:53 PM 91.9 °F 46.0 °F 21% 29.86 in 10.0 mi SSW 21.9 mph 26.5 mph N/A   Clear
2:53 PM 93.9 °F 45.0 °F 18% 29.83 in 10.0 mi SSW 19.6 mph 26.5 mph N/A   Clear
3:53 PM 95.0 °F 45.0 °F 18% 29.83 in 10.0 mi South 24.2 mph 31.1 mph N/A   Clear
4:53 PM 93.9 °F 46.0 °F 19% 29.83 in 10.0 mi SSW 26.5 mph 33.4 mph N/A   Clear
5:53 PM 90.0 °F 46.9 °F 23% 29.83 in 10.0 mi South 18.4 mph 26.5 mph N/A   Clear
6:53 PM 90.0 °F 46.9 °F 23% 29.83 in 10.0 mi South 18.4 mph - N/A   Clear
7:53 PM 90.0 °F 48.0 °F 24% 29.83 in 10.0 mi South 17.3 mph - N/A   Clear
8:53 PM 88.0 °F 46.9 °F 24% 29.82 in 10.0 mi South 15.0 mph - N/A   Clear
9:53 PM 84.0 °F 46.9 °F 27% 29.83 in 10.0 mi South 16.1 mph - N/A   Clear
10:53 PM 82.0 °F 48.0 °F 30% 29.87 in 10.0 mi South 13.8 mph - N/A   Clear
11:53 PM 81.0 °F 50.0 °F 34% 29.89 in 10.0 mi South 12.7 mph - N/A   Clear